Wind_Speed
51 53 56 59 64 68 71 73 77 81 84 86 88 87 83 79 78 77 76 73 67 61 56 53 53 53 54 54 54 52 50 49 48 47 50 59 69 77 85 93 100 105 106
52 55 58 62 66 69 72 74 78 81 85 88 89 86 80 78 77 75 74 71 65 60 57 56 57 58 59 59 59 58 55 52 52 49 46 49 60 71 80 88 95 102 107
54 56 59 63 67 69 72 75 79 83 87 88 87 82 78 76 75 73 71 67 63 60 59 60 61 63 64 64 64 63 60 56 54 53 49 46 51 62 73 83 90 97 104
55 57 61 64 67 70 73 77 81 85 88 87 84 81 78 76 75 74 70 65 61 61 62 64 67 69 70 70 69 67 64 60 56 54 52 49 46 54 64 76 85 91 98
55 57 61 65 68 71 75 78 82 86 87 86 83 79 78 77 76 73 68 62 60 62 66 69 73 74 74 73 72 69 66 62 58 54 53 51 48 48 57 67 78 87 92
55 58 62 66 69 72 76 79 83 86 86 84 81 78 77 76 75 71 65 62 63 67 72 75 75 73 71 69 67 65 63 60 57 53 51 50 48 48 49 59 70 81 87
54 58 63 67 70 73 76 79 83 85 84 82 79 77 77 76 74 70 66 66 69 75 78 75 68 62 57 53 52 52 53 53 52 50 49 48 47 47 47 52 62 74 83
54 59 63 67 71 73 76 79 83 84 83 80 77 76 76 75 73 70 69 72 77 81 78 70 61 53 46 41 36 34 37 41 44 44 44 44 45 45 46 48 56 67 78
54 59 64 68 71 74 76 80 83 83 81 78 75 74 75 74 71 69 71 75 81 82 76 65 55 47 42 36 29 22 21 28 34 37 38 40 41 42 44 45 50 61 72
54 59 64 68 71 74 76 80 82 81 79 76 74 74 74 73 71 70 72 77 81 79 71 59 50 44 39 34 26 15 7 15 23 29 32 34 36 38 40 43 46 55 67
55 60 65 68 71 73 76 79 81 80 76 74 72 72 72 72 71 71 73 78 80 76 66 54 46 40 36 32 28 19 8 5 14 21 26 29 32 34 37 40 44 50 61
55 60 65 68 71 73 76 78 79 78 74 72 71 71 71 71 70 71 73 78 79 73 62 50 41 36 32 30 27 23 14 6 6 13 19 24 28 30 33 37 41 46 55
56 60 65 69 71 73 75 77 78 76 72 70 69 69 69 70 70 71 73 76 78 72 60 47 38 32 28 26 24 20 14 7 2 8 14 20 24 27 29 33 37 42 49
56 60 65 69 71 72 75 76 76 74 71 68 68 67 68 69 70 71 72 75 77 73 62 47 36 29 25 22 19 16 11 5 2 8 13 17 21 23 26 29 33 38 45
56 60 65 69 71 72 74 75 75 73 70 68 67 66 66 67 69 70 71 73 76 75 67 52 38 29 24 21 17 14 10 6 6 9 12 16 18 20 22 26 30 35 41
56 60 65 69 70 71 73 74 73 72 69 67 65 64 64 66 68 70 70 71 73 75 71 60 45 33 26 22 18 15 12 9 8 9 11 13 15 17 19 23 27 33 39
57 60 65 68 70 70 71 72 72 71 69 66 64 63 63 64 67 68 69 69 71 73 73 67 54 41 32 26 21 18 14 12 9 9 9 10 12 14 17 20 25 30 36
57 60 64 68 69 69 70 70 71 70 68 65 63 62 62 63 64 66 67 67 68 70 71 70 63 50 39 32 26 22 17 14 10 7 6 6 9 12 15 19 23 28 34
58 60 64 67 68 68 68 69 70 69 67 64 62 61 61 61 62 64 65 65 66 67 69 70 68 59 47 37 31 26 21 17 12 7 3 3 7 11 15 18 22 26 32
59 60 63 66 67 67 67 68 69 68 66 63 60 60 59 60 60 61 63 64 64 65 67 68 69 66 56 44 36 30 25 20 15 9 4 3 8 12 16 19 22 25 31
61 60 63 66 67 67 66 67 68 67 66 63 59 58 58 58 59 59 61 62 63 63 64 66 67 67 63 53 42 35 29 22 16 11 6 7 10 14 17 19 21 25 30
62 61 62 65 66 66 65 66 66 66 65 62 59 57 57 57 57 57 58 59 60 61 61 62 64 65 64 60 50 41 34 27 19 13 9 9 12 16 18 20 21 24 29
64 61 61 64 65 65 64 64 65 65 63 62 59 57 56 55 55 55 56 56 58 58 58 59 61 63 63 62 57 49 40 31 23 15 11 11 14 17 18 20 21 24 27
66 61 61 63 64 64 63 63 63 63 62 60 58 56 55 54 54 54 54 54 55 56 56 57 58 59 61 62 62 56 46 36 27 18 12 12 14 17 18 19 20 22 24
67 62 60 61 63 63 62 61 62 62 61 59 58 56 54 53 53 53 53 53 54 55 56 56 56 56 58 60 61 59 53 43 33 23 14 11 13 15 16 17 19 20 21
68 62 59 60 62 62 61 60 60 60 60 58 57 55 53 51 50 51 52 53 53 53 54 55 55 55 56 57 57 57 55 50 40 28 18 11 10 13 14 15 17 18 19
Wind_Direction
326 327 328 329 329 329 330 330 329 328 327 326 325 325 325 324 323 322 321 319 315 310 305 300 296 295 293 292 290 289 287 285 281 271 255 243 235 231 228 223 220 219 219
327 329 330 331 331 331 331 330 330 329 328 327 327 327 327 326 325 325 323 319 314 309 304 299 296 293 292 290 288 286 283 281 279 274 265 249 238 232 228 225 222 218 217
330 331 332 333 333 332 331 331 331 330 328 328 329 329 329 328 326 326 324 320 314 309 304 300 297 294 291 288 286 282 279 276 274 272 268 258 242 233 229 226 223 220 217
332 333 334 335 334 333 332 332 332 330 330 330 331 331 331 330 329 329 326 323 318 313 309 305 300 296 291 287 283 279 276 272 269 266 265 260 250 236 229 227 224 221 218
334 335 336 336 335 334 334 334 333 332 331 332 333 333 333 332 332 331 329 326 322 317 313 308 303 298 293 288 283 277 272 268 264 260 258 257 253 242 230 225 225 221 219
334 336 338 337 336 335 335 335 334 333 333 334 335 335 334 334 334 333 331 329 326 322 317 312 307 302 297 290 283 276 269 264 260 256 252 251 250 246 234 224 223 222 220
335 338 339 338 337 337 337 336 335 335 335 336 337 337 337 337 337 336 335 333 331 328 324 321 318 313 307 298 287 276 265 257 253 250 247 246 245 243 237 227 220 220 219
336 338 339 339 339 338 338 337 336 337 337 338 339 339 339 340 340 339 339 338 336 335 333 333 331 330 326 318 302 283 263 249 244 242 242 241 241 239 237 230 221 218 218
336 339 340 341 340 340 339 338 338 338 339 340 341 341 342 343 343 343 343 342 342 341 341 341 342 343 344 340 329 302 265 240 233 233 235 237 238 237 235 231 223 217 216
337 340 342 342 341 341 340 340 340 340 341 342 344 344 345 346 347 347 347 347 347 346 345 345 347 351 355 358 358 348 285 227 222 225 229 233 235 236 233 230 225 218 214
338 341 343 343 343 342 342 342 342 342 343 345 346 347 348 350 350 351 351 352 351 350 349 348 351 358 7 16 23 30 44 186 211 220 226 231 233 234 232 229 225 218 213
340 342 344 344 344 344 343 343 344 344 345 346 348 349 351 353 354 354 355 356 356 355 353 351 353 1 13 24 33 40 51 81 187 216 225 229 231 233 231 228 224 219 213
341 343 345 345 345 345 345 345 346 346 347 348 350 352 354 356 357 358 359 359 -0 0 358 354 353 360 12 23 29 35 42 56 154 214 223 228 229 231 229 227 223 218 212
342 345 346 347 347 346 346 347 347 348 348 350 352 354 356 358 360 1 1 2 3 5 4 -0 356 355 1 11 17 18 20 13 268 232 230 231 230 229 227 224 220 216 211
343 346 347 348 348 348 348 348 349 349 350 352 353 355 358 0 2 3 4 4 6 8 9 7 2 356 351 356 359 356 351 330 282 253 241 234 229 227 222 218 216 213 209
343 346 348 349 349 349 349 350 350 351 352 353 355 357 359 2 3 5 5 6 8 10 12 12 8 3 356 352 348 341 332 315 287 264 250 238 229 221 214 211 210 208 205
344 346 348 349 349 350 351 351 351 352 353 355 356 358 360 2 4 6 7 8 10 12 14 15 13 10 6 360 354 346 337 326 304 280 258 238 224 212 206 204 203 202 201
344 346 348 349 350 351 352 351 352 354 355 356 358 359 0 3 5 7 8 9 11 13 15 16 17 15 11 7 4 359 354 345 333 310 274 235 210 198 195 194 193 194 195
345 347 349 350 351 352 352 352 354 355 357 358 359 359 1 4 6 7 9 11 12 14 15 17 19 18 16 13 10 6 3 360 356 350 320 206 185 180 179 180 182 186 189
346 347 349 350 351 352 353 354 355 357 358 359 359 0 2 5 7 8 10 12 13 14 16 18 19 20 20 18 15 12 10 9 10 15 37 133 157 162 163 166 171 177 182
347 347 349 350 352 353 354 354 356 358 359 0 0 1 4 6 7 9 11 12 14 15 16 18 19 20 21 21 19 18 16 15 19 30 60 111 137 147 152 156 162 168 174
347 347 349 350 351 353 354 355 356 358 360 1 2 3 5 7 8 10 11 13 15 16 17 18 19 21 22 23 23 22 20 21 25 38 69 107 130 139 143 148 154 161 167
347 347 348 350 351 353 354 355 356 358 360 2 2 3 5 7 9 11 12 13 15 16 17 18 19 21 22 24 26 25 24 25 29 42 72 106 128 136 140 143 149 157 163
347 346 347 349 351 352 354 355 356 358 360 2 3 3 4 7 9 11 12 13 15 16 18 19 20 20 21 24 27 27 27 27 31 42 69 104 127 137 141 143 148 153 160
346 346 346 348 350 352 354 355 356 358 360 2 3 3 4 5 7 9 12 13 14 16 18 19 20 21 21 23 25 26 28 29 32 39 59 96 127 139 144 147 150 154 159
345 345 345 347 349 351 353 355 356 357 359 1 3 4 4 4 5 7 9 12 14 16 17 18 19 20 21 22 24 25 27 29 32 36 47 78 122 142 150 153 156 159 163
Height
5803 5793 5783 5773 5761 5749 5735 5720 5706 5691 5674 5656 5638 5620 5602 5583 5566 5549 5533 5519 5506 5495 5486 5478 5472 5465 5459 5454 5449 5445 5442 5439 5436 5436 5440 5445 5450 5457 5469 5481 5495 5514 5534
5795 5785 5775 5764 5752 5738 5723 5709 5694 5677 5658 5640 5621 5602 5585 5568 5551 5534 5517 5502 5489 5478 5469 5462 5454 5447 5441 5435 5429 5425 5423 5422 5419 5418 5420 5426 5431 5436 5446 5456 5469 5487 5507
5787 5777 5766 5755 5742 5727 5713 5698 5681 5663 5644 5624 5606 5589 5572 5555 5539 5523 5506 5489 5475 5463 5453 5444 5435 5427 5420 5413 5408 5404 5402 5403 5401 5399 5401 5405 5411 5417 5426 5435 5447 5463 5481
5779 5769 5758 5746 5732 5718 5702 5686 5668 5648 5629 5609 5591 5574 5558 5542 5525 5508 5491 5475 5460 5448 5436 5426 5414 5403 5394 5387 5381 5378 5377 5379 5382 5382 5383 5386 5390 5397 5407 5416 5427 5441 5457
5772 5761 5750 5737 5723 5708 5691 5674 5655 5635 5615 5596 5578 5561 5544 5526 5510 5493 5477 5462 5448 5434 5419 5405 5390 5376 5365 5356 5351 5349 5350 5353 5358 5362 5365 5369 5373 5378 5387 5399 5408 5421 5436
5765 5754 5742 5729 5714 5698 5681 5663 5644 5624 5605 5586 5567 5550 5533 5515 5498 5481 5465 5451 5436 5419 5400 5381 5363 5346 5333 5324 5318 5318 5321 5326 5333 5341 5347 5352 5357 5362 5369 5381 5391 5403 5417
5758 5747 5735 5721 5705 5688 5671 5653 5634 5615 5595 5576 5558 5540 5521 5503 5484 5467 5451 5436 5420 5401 5378 5356 5336 5319 5305 5294 5289 5288 5292 5301 5311 5320 5328 5335 5341 5347 5354 5364 5374 5385 5399
5752 5741 5728 5713 5697 5680 5663 5644 5625 5606 5587 5568 5550 5531 5512 5493 5474 5456 5438 5421 5401 5379 5355 5334 5315 5300 5286 5276 5269 5267 5270 5280 5291 5303 5312 5320 5326 5333 5341 5349 5359 5370 5382
5746 5734 5720 5705 5689 5672 5654 5636 5617 5598 5579 5561 5542 5523 5505 5485 5466 5448 5429 5409 5386 5363 5339 5320 5305 5292 5279 5268 5259 5255 5258 5267 5278 5290 5299 5307 5314 5321 5328 5336 5344 5356 5368
5739 5727 5713 5697 5681 5664 5647 5628 5609 5590 5571 5553 5535 5517 5498 5479 5460 5442 5422 5401 5377 5352 5331 5314 5302 5290 5279 5267 5259 5254 5256 5263 5272 5281 5290 5297 5304 5311 5318 5325 5332 5342 5355
5733 5720 5706 5690 5674 5657 5640 5621 5602 5583 5565 5547 5529 5511 5493 5474 5455 5436 5417 5395 5371 5348 5327 5312 5301 5292 5282 5272 5265 5261 5261 5265 5271 5278 5284 5290 5296 5302 5308 5314 5322 5331 5343
5726 5714 5700 5684 5668 5651 5633 5615 5597 5578 5560 5543 5525 5507 5489 5471 5452 5434 5414 5392 5369 5346 5327 5312 5303 5295 5287 5280 5274 5270 5269 5271 5274 5277 5281 5285 5290 5295 5300 5306 5314 5323 5334
5721 5708 5694 5678 5662 5645 5628 5610 5592 5574 5556 5539 5522 5504 5487 5469 5451 5432 5413 5392 5370 5348 5329 5314 5305 5298 5292 5286 5281 5278 5276 5276 5276 5277 5279 5281 5285 5290 5295 5301 5308 5316 5326
5715 5703 5689 5673 5657 5640 5623 5605 5588 5570 5553 5536 5519 5502 5485 5467 5449 5431 5412 5393 5373 5351 5332 5317 5307 5300 5295 5290 5286 5283 5281 5279 5277 5277 5278 5279 5282 5286 5290 5296 5303 5311 5320
5710 5697 5683 5668 5652 5635 5618 5601 5584 5567 5550 5534 5518 5501 5484 5467 5449 5432 5414 5396 5376 5356 5337 5321 5310 5302 5297 5292 5288 5285 5282 5280 5278 5277 5277 5278 5280 5283 5287 5292 5298 5306 5315
5705 5692 5679 5663 5647 5631 5614 5598 5582 5566 5549 5533 5516 5500 5484 5468 5451 5434 5417 5399 5381 5362 5343 5327 5315 5306 5299 5293 5289 5285 5281 5279 5277 5275 5275 5276 5278 5281 5284 5289 5295 5302 5310
5700 5688 5674 5660 5644 5628 5611 5596 5581 5564 5547 5531 5515 5500 5484 5469 5453 5436 5420 5403 5386 5368 5350 5334 5320 5309 5301 5294 5289 5284 5280 5277 5275 5274 5273 5274 5276 5279 5283 5287 5293 5299 5307
5696 5684 5670 5656 5641 5625 5609 5595 5579 5563 5546 5530 5514 5500 5485 5470 5455 5440 5424 5408 5391 5375 5358 5342 5327 5315 5305 5297 5290 5284 5280 5277 5274 5272 5272 5273 5275 5278 5282 5287 5292 5299 5306
5692 5680 5667 5653 5638 5622 5607 5593 5578 5562 5545 5530 5515 5501 5487 5472 5458 5443 5429 5413 5398 5382 5367 5351 5336 5322 5310 5301 5293 5287 5282 5278 5274 5273 5272 5273 5275 5279 5283 5287 5293 5299 5306
5689 5676 5664 5650 5635 5621 5606 5592 5577 5561 5546 5530 5516 5503 5489 5474 5460 5447 5433 5418 5404 5389 5374 5359 5344 5331 5317 5306 5298 5290 5285 5280 5276 5275 5274 5275 5277 5281 5285 5290 5295 5301 5308
5685 5673 5661 5647 5634 5619 5605 5591 5577 5562 5546 5531 5518 5504 5490 5477 5463 5450 5437 5423 5409 5395 5380 5367 5353 5339 5326 5314 5304 5296 5289 5284 5280 5278 5278 5279 5281 5284 5289 5294 5299 5305 5312
5682 5670 5658 5645 5632 5618 5604 5591 5576 5562 5547 5533 5519 5506 5493 5480 5467 5454 5441 5428 5416 5403 5390 5377 5364 5350 5337 5324 5311 5302 5295 5289 5285 5283 5283 5284 5286 5290 5294 5299 5304 5310 5316
5679 5667 5655 5643 5630 5617 5603 5590 5576 5561 5547 5533 5520 5508 5495 5483 5471 5459 5447 5435 5423 5411 5399 5386 5373 5360 5348 5335 5322 5310 5302 5296 5292 5289 5289 5290 5293 5296 5300 5304 5309 5315 5321
5676 5664 5653 5641 5628 5615 5602 5589 5575 5561 5547 5534 5521 5508 5497 5486 5475 5463 5452 5441 5430 5419 5406 5393 5381 5369 5357 5345 5332 5321 5312 5304 5299 5297 5296 5297 5299 5303 5306 5310 5314 5320 5325
5674 5662 5651 5639 5627 5614 5602 5589 5575 5562 5548 5534 5522 5509 5498 5486 5476 5467 5457 5446 5434 5422 5411 5400 5389 5378 5366 5353 5342 5332 5322 5314 5308 5305 5303 5304 5306 5309 5312 5316 5319 5324 5329
5671 5659 5648 5637 5625 5613 5601 5588 5575 5562 5549 5536 5523 5511 5500 5489 5478 5468 5457 5448 5438 5427 5417 5406 5395 5385 5374 5364 5354 5344 5334 5325 5318 5313 5311 5311 5312 5314 5317 5321 5324 5328 5332